Mobile, AL

4:14 PM CDT on April 24, 2018 (GMT -0500)
Mobile Regional

Weather History for KMOB - April, 2013

Change the Weather History Date:

Sunday, April 28, 2013

  Actual Average Record
Temperature  
Mean Temperature 73 °F 70 °F  
Max Temperature 81 °F 80 °F 91 °F (1971)
Min Temperature 65 °F 59 °F 42 °F (1992)
Degree Days  
Heating Degree Days 0 1  
Month to date heating degree days 60 60  
Since 1 July heating degree days 1546 1691  
Cooling Degree Days 8 5  
Month to date cooling degree days 77 92  
Year to date cooling degree days 121 147  
Growing Degree Days 24 (Base 50)    
Moisture  
Dew Point 65 °F    
Average Humidity 77    
Maximum Humidity 97    
Minimum Humidity 56    
Precipitation  
Precipitation T in 0.16 in 2.89 in (1998)
Month to date precipitation 5.10 4.50  
Year to date precipitation 20.08 21.41  
Sea Level Pressure  
Sea Level Pressure 30.03 in    
Wind  
Wind Speed 5 mph (SSE)    
Max Wind Speed 18 mph    
Max Gust Speed 25 mph    
Visibility 6 miles    
Events Fog , Rain , Thunderstorm    
T = Trace of Precipitation, MM = Missing Value Source: NWS Daily Summary

Daily Weather History Graph

Daily Weather History Graph

Search for Another Location

Airport or City:

Astronomy

Apr. 28, 2013 Rise Set
Actual Time 6:11 AM CDT 7:29 PM CDT
Civil Twilight 5:46 AM CDT 7:55 PM CDT
Nautical Twilight 5:16 AM CDT 8:25 PM CDT
Astronomical Twilight 4:44 AM CDT 8:56 PM CDT
Moon 10:52 PM CDT (4/28) 8:35 AM CDT (4/28)
Length of Visible Light 14h 08m
Length of Day
13h 17m
Waning Gibbous, 88% of the Moon is Illuminated
Apr 28
Waning Gibbous
May 2
Last Quarter
May 9
New
May 17
First Quarter
May 24
Full

Hourly Weather History & Observations

Time (CDT) Temp. Heat Index Dew Point Humidity Pressure Visibility Wind Dir Wind Speed Gust Speed Precip Events Conditions
12:08 AM 68.0 °F - 66.2 °F 94% 30.08 in 1.8 mi SSE 6.9 mph - N/A   Overcast
12:17 AM 68.0 °F - 66.2 °F 94% 30.09 in 3.0 mi SSE 8.1 mph - N/A   Overcast
12:56 AM 68.0 °F - 66.0 °F 93% 30.08 in 5.0 mi SSE 8.1 mph - N/A   Overcast
1:56 AM 68.0 °F - 66.0 °F 93% 30.06 in 4.0 mi South 4.6 mph - N/A   Overcast
2:56 AM 69.1 °F - 66.9 °F 93% 30.06 in 4.0 mi South 5.8 mph - N/A   Overcast
3:56 AM 68.0 °F - 66.0 °F 93% 30.06 in 3.0 mi SSW 3.5 mph - N/A   Overcast
4:28 AM 68.0 °F - 66.2 °F 94% 30.06 in 2.5 mi South 3.5 mph - N/A   Overcast
4:53 AM 68.0 °F - 66.2 °F 94% 30.06 in 1.5 mi SSE 4.6 mph - N/A   Overcast
4:56 AM 68.0 °F - 66.0 °F 93% 30.05 in 1.5 mi SE 4.6 mph - N/A   Overcast
5:09 AM 68.0 °F - 66.2 °F 94% 30.06 in 3.0 mi SE 3.5 mph - N/A   Overcast
5:40 AM 68.0 °F - 66.2 °F 94% 30.05 in 1.5 mi SE 4.6 mph - N/A   Overcast
5:56 AM 68.0 °F - 66.0 °F 93% 30.04 in 0.5 mi SE 4.6 mph - N/A Fog Fog
6:14 AM 68.0 °F - 66.2 °F 94% 30.05 in 0.2 mi SSE 4.6 mph - N/A Fog Fog
6:56 AM 68.0 °F - 66.9 °F 96% 30.05 in 0.2 mi SSE 5.8 mph - N/A Fog Fog
7:25 AM 68.0 °F - 66.2 °F 94% 30.06 in 0.8 mi SSE 4.6 mph - N/A   Overcast
7:56 AM 69.1 °F - 66.9 °F 93% 30.05 in 0.8 mi SSE 3.5 mph - N/A   Mostly Cloudy
8:11 AM 69.8 °F - 68.0 °F 94% 30.06 in 3.0 mi SE 6.9 mph - N/A   Mostly Cloudy
8:56 AM 70.0 °F - 68.0 °F 93% 30.05 in 8.0 mi SSE 4.6 mph - N/A   Overcast
9:05 AM 69.8 °F - 68.0 °F 94% 30.05 in 10.0 mi Variable 3.5 mph - N/A   Overcast
9:22 AM 71.6 °F - 68.0 °F 88% 30.05 in 10.0 mi South 10.4 mph - N/A   Mostly Cloudy
9:38 AM 75.2 °F - 66.2 °F 73% 30.05 in 10.0 mi South 10.4 mph - N/A   Scattered Clouds
9:56 AM 77.0 °F - 64.9 °F 66% 30.05 in 10.0 mi SSW 12.7 mph - N/A   Mostly Cloudy
10:56 AM 78.1 °F - 64.0 °F 62% 30.05 in 10.0 mi South 15.0 mph 20.7 mph N/A   Mostly Cloudy
11:56 AM 80.1 °F 81.7 °F 64.0 °F 58% 30.04 in 10.0 mi South 15.0 mph 24.2 mph N/A   Scattered Clouds
12:56 PM 77.0 °F - 61.0 °F 58% 30.03 in 10.0 mi South 16.1 mph - N/A   Mostly Cloudy
1:56 PM 75.9 °F - 64.0 °F 67% 30.02 in 10.0 mi SSW 10.4 mph - N/A   Mostly Cloudy
2:56 PM 73.9 °F - 64.9 °F 73% 30.00 in 10.0 mi SSW 6.9 mph - N/A   Scattered Clouds
3:56 PM 70.0 °F - 61.0 °F 73% 29.99 in 10.0 mi NW 6.9 mph - N/A   Scattered Clouds
4:17 PM 69.8 °F - 62.6 °F 78% 29.99 in 6.0 mi NNW 8.1 mph - 0.00 in Rain , Thunderstorm Thunderstorms and Rain
4:53 PM 69.8 °F - 62.6 °F 78% 29.99 in 10.0 mi NNW 3.5 mph - 0.00 in   Mostly Cloudy
4:56 PM 70.0 °F - 62.1 °F 76% 29.99 in 10.0 mi WNW 3.5 mph - 0.00 in   Mostly Cloudy
5:56 PM 72.0 °F - 60.1 °F 66% 29.98 in 10.0 mi Calm Calm - N/A   Mostly Cloudy
6:56 PM 71.1 °F - 61.0 °F 70% 29.97 in 10.0 mi Calm Calm - N/A   Partly Cloudy
7:56 PM 69.1 °F - 61.0 °F 75% 29.98 in 10.0 mi East 3.5 mph - N/A   Overcast
8:56 PM 68.0 °F - 62.1 °F 81% 29.99 in 10.0 mi Calm Calm - N/A   Partly Cloudy
9:56 PM 66.0 °F - 62.1 °F 87% 30.00 in 10.0 mi Calm Calm - N/A   Partly Cloudy
10:56 PM 66.9 °F - 62.1 °F 84% 29.99 in 10.0 mi Calm Calm - N/A   Partly Cloudy
11:56 PM 64.9 °F - 62.1 °F 90% 29.99 in 10.0 mi Calm Calm - N/A   Clear